Volver al catálogo

STARLINK-2659

ActivoComunicacionesVLEO
NORAD 48467·PAYLOAD·🇺🇸 United States

Lanzado May 9, 2021 desde Cape Canaveral Space Force Station

Loading…

Próximos Pases (próximas 24 horas)

TLE

ActualizadoSource: CelesTrak SupGP

Época: Sep 14, 2026, 21:14 UTC

1 48467C 21040AR  26257.88520833  .00030416  00000+0  97771-3 0  2579
2 48467  53.1599  30.5233 0001143  84.2969  83.8883 15.31700029    13

Sigue STARLINK-2659 en tiempo real con AllMySat

Download on the App Store